Regional Weather Roundup
Issued by NWS

Home | Current Version | Previous Version | Graphics & Text | Print | Product List | Glossary On
Versions: 1 2 3 4 5 6 7 8 9 10 11 12 13 14 15 16 17 18 19 20 21 22 23 24 25 26 27 28 29 30 31 32 33 34 35 36 37 38 39 40 41 42 43 44 45 46 47 48 49 50
000
ASUS43 KIND 260509
RWRIN

WEATHER ROUNDUP FOR INDIANA
NATIONAL WEATHER SERVICE INDIANAPOLIS IN
100 AM EDT THU MAY 26 2016

NOTE: "FAIR" INDICATES FEW OR NO CLOUDS BELOW 12,000 FEET WITH NO
SIGNIFICANT WEATHER AND/OR OBSTRUCTIONS TO VISIBILITY.

* - STATION DOES NOT REPORT WEATHER SUCH AS PRECIPITATION OR FOG.

+ - STATION NOT QUALITY CONTROLLED BY THE NATIONAL WEATHER SERVICE.
    USE DATA WITH CAUTION...ESPECIALLY DEWPOINT AND RELATIVE
    HUMIDITY OBSERVATIONS.

INZ001>003-010>013-019-020-260600-
NORTHWEST INDIANA

CITY           SKY/WX    TMP DP  RH WIND       PRES   REMARKS
GARY /AIRPORT/ CLOUDY    65  65 100 CALM      29.98S
KNOX *+        CLOUDY    72  52  49 SW12      29.98R
LA PORTE +     CLOUDY    67  67 100 E3        30.00R
MICHIGAN CITY+ CLOUDY    63  63 100 E5        29.99S
MONTICELLO +   CLOUDY    72  59  64 S8        29.99S
RENSSELAER +   CLOUDY    72  63  73 S10       29.99R
VALPARAISO     MOCLDY    72  63  73 SW6       29.98R

$$

LMZ046-743>745-260600-
SOUTHERN LAKE MICHIGAN

STATION/POSITION TIME  TEMP    WIND        PRES    WAVE
                       AIR SEA DIR/SP/G            HT
                 (UTC) (F)     (DEG/KT/KT) (MB)    (FT)
BURNS HARBOR     0400   63      80/  9/ 11 1015.6F
MICHIGAN CITY    0400   63      50/ 11/ 12   N/A
5NW MICH CITY    0500   61 59   90/  8/ 12   N/A     1

$$

INZ004-005-014>016-021>024-260600-
NORTH CENTRAL INDIANA

CITY           SKY/WX    TMP DP  RH WIND       PRES   REMARKS
GOSHEN         CLOUDY    74  61  63 W8        29.99R
LOGANSPORT +   CLOUDY    72  61  68 SW12      30.01S
PERU/GRISSOM   MOCLDY    71  63  74 SW13G21   30.00R
ROCHESTER +    CLOUDY    75  63  64 SW9G16    30.00S
SOUTH BEND     CLOUDY    65  62  90 N5        30.01R
WARSAW +       MOCLDY    73  61  64 SW6       30.00R

$$

INZ006>009-017-018-025>027-260600-
NORTHEAST INDIANA

CITY           SKY/WX    TMP DP  RH WIND       PRES   REMARKS
ANGOLA *+      CLEAR     72  63  73 SW7       29.99S
AUBURN +       MOCLDY    73  61  64 SW5       30.01R
FORT WAYNE     CLOUDY    72  62  71 SW8       30.01R
HUNTINGTON +   CLOUDY   N/A N/A N/A CALM      30.00S

$$

INZ028-029-035-036-043>045-051>053-260600-
WEST CENTRAL INDIANA

CITY           SKY/WX    TMP DP  RH WIND       PRES   REMARKS
CRAWFORDSVL +  MOCLDY    67  64  88 S8        30.01F
GREENCASTLE +  CLOUDY    68  64  88 S3        30.03F
LAFAYETTE      CLOUDY    70  62  76 S6        29.99S
TERRE HAUTE    MOCLDY    69  64  84 S7        30.01F

$$

INZ030>032-037>040-046>048-054>057-064-065-260600-
CENTRAL INDIANA

CITY           SKY/WX    TMP DP  RH WIND       PRES   REMARKS
CP ATTERBURY + PTCLDY    68  61  77 S7        30.05S
FISHERS *+     MOCLDY    70  64  83 SW8G16    30.03F
FRANKFORT +      N/A     71  55  57 SW7       30.03F
INDIANAPOLIS   CLOUDY    70  62  76 SW8       30.01F
-EAGLE CREEK   CLOUDY    71  62  73 SW6       30.02F
KOKOMO *+      CLOUDY    72  61  68 SW12      30.01S
MARION +       MOCLDY    70  62  77 SW7       30.02S
SHELBYVILLE    CLOUDY    72  61  68 SW9       30.04S
ZIONSVILLE +   CLOUDY    70  62  76 SW8       30.03F

$$

INZ033-034-041-042-049-050-058-059-260600-
EAST CENTRAL INDIANA

CITY           SKY/WX    TMP DP  RH WIND       PRES   REMARKS
MUNCIE         MOCLDY    73  62  68 SW9       30.02S

$$

INZ060-061-067>069-081>083-085>088-260600-
SOUTHWEST INDIANA

CITY           SKY/WX    TMP DP  RH WIND       PRES   REMARKS
EVANSVILLE     CLOUDY    67  63  87 SW8       30.04F
HUNTINGBURG *+ CLOUDY    66  61  82 S5        30.05S
WASHINGTON +   CLOUDY    69  66  89 SW8       30.02F

$$

INZ062-063-066-070>080-084-089>092-260600-
SOUTH CENTRAL AND SOUTHEAST INDIANA

CITY           SKY/WX    TMP DP  RH WIND       PRES   REMARKS
BEDFORD +      CLOUDY    66  66 100 CALM      30.05S
BLOOMINGTON    CLOUDY    69  62  78 S6        30.04S
MADISON *+     PTCLDY    64  61  88 CALM      30.09R
NORTH VERNON + CLOUDY    68  68 100 CALM      30.07R
SEYMOUR +      CLOUDY    68  61  77 CALM      30.06R

$$




USA.gov is the U.S. government's official web portal to all federal, state and local government web resources and services.